STARLINK-1479 (45740 NORAD) Tracking and Keplerian Element Data

This shows tracking and keplerian element data for the satellite.

Feedback or suggestion? Click here.




ElementValue
Catalog45740
NameSTARLINK-1479
Epoch Orbit958
Epoch Day218.91667824
Epoch Year2020
RAAN42.4875
Inclination53.0012
Eccentricity7.91E-05
Argument of Perigee82.7819
Mean Anonmoly119.0627
Mean Motion15.05594255
Decay Rate-0.00014559
L11 45740U 20038L 20218.91667824 -.00014559 00000-0 -98173-3 0 9996
L22 45740 53.0012 42.4875 0000791 82.7819 119.0627 15.05594255 9584

Live tracking and technical data element details for STARLINK-1479 (NORAD 45740). STARLINK-1479 can be tracked NOW for your location showing map with azimuth and elevation plus other details from your city location.

Track the satellite on the map from your city or location and see movement details for azimuth, elevation, latitude, longitude, range, height, and movement on the map or in text.







IsCatalogInMostPopularTable: catalog: 45740, numindb: 10
Update: records affected: 1



GetName: 45740 STARLINK-1479

Hit Count: updated at: Sat, 08 Aug 2020 00:36:40 GMT